Regional Weather Roundup
Issued by NWS

Home | Current Version | Previous Version | Graphics & Text | Print | Product List | Glossary On
Versions: 1 2 3 4 5 6 7 8 9 10 11 12 13 14 15 16 17 18 19 20 21 22 23 24 25 26 27 28
000
ASUS45 KBOU 252007
RWRCO

WEATHER ROUNDUP FOR COLORADO
NATIONAL WEATHER SERVICE DENVER/BOULDER CO
200 PM MDT SAT OCT 25 2014

NOTE: "FAIR" INDICATES FEW OR NO CLOUDS BELOW 12000 FEET WITH NO
SIGNIFICANT WEATHER AND/OR OBSTRUCTIONS TO VISIBILITY.

COZ001>005-013-030-031-252100-
...NORTHWEST COLORADO...

CITY           SKY/WX    TMP DP  RH WIND       PRES   REMARKS
CRAIG          SUNNY     75  26  16 W10G17    30.19F
HAYDEN         SUNNY     72  25  17 NW7       30.21F
MEEKER         SUNNY     74  22  14 SW16G26   30.21F
MOUNT WERNER   NOT AVBL
STEAMBOAT SPGS SUNNY     69  21  16 SW5       30.24F
WALDEN         SUNNY     64  12  13 S12G23    30.30F
$$

COZ006>008-011-252100-
...WEST CENTRAL VALLEYS...

CITY           SKY/WX    TMP DP  RH WIND       PRES   REMARKS
GRAND JUNCTION SUNNY     71  28  20 CALM      30.15F
MONTROSE       SUNNY     73  29  19 NW8       30.22F
EAGLE          SUNNY     63  25  23 CALM      30.28F
RIFLE          SUNNY     69  29  22 CALM      30.19F
DELTA          SUNNY     78  25  14 CALM      30.19F
NUCLA          SUNNY     72  28  20 NW5       30.27F
$$

COZ017>023-064>068-252100-
...SOUTHWEST COLORADO...

CITY           SKY/WX    TMP DP  RH WIND       PRES   REMARKS
DURANGO        SUNNY     70  29  21 CALM      30.31F
CORTEZ         SUNNY     75  32  20 SW15      30.26F
PAGOSA SPRINGS SUNNY     69  20  15 S12       30.36F
TELLURIDE      SUNNY     66  25  21 SW5       30.42F
WOLF CREEK PAS SUNNY     50  21  32 S13G36      N/A
$$

COZ009-010-012-014-032>034-037-058>063-252100-
...CENTRAL COLORADO...

CITY           SKY/WX    TMP DP  RH WIND       PRES   REMARKS
ASPEN          SUNNY     70  14  11 N9        30.29F
BUENA VISTA    SUNNY     69  17  13 SE7       30.31F
COPPER MTN     SUNNY     59 -11   5 SE22G28   30.55F
BERTHOUD PASS  FAIR      46  43  87 MISG      30.60F
COTTONWOOD PAS SUNNY     64   0   7 SE6       30.44F
GUNNISON       SUNNY     61  21  21 CALM      30.36F
KREMMLING      SUNNY     64  14  14 CALM        N/A
LEADVILLE      SUNNY     61   3  10 S8        30.41F
MONARCH PASS   SUNNY     52  14  22 W16G25    30.69F
SALIDA         SUNNY     72  20  14 NE3       30.35F
SUNLIGHT       SUNNY     59  23  25 CALM      30.51F
WILKERSON PASS NOT AVBL
$$

COZ069>075-252100-
...SAN LUIS VALLEY/SANGRE DE CRISTO MOUNTAINS...

CITY           SKY/WX    TMP DP  RH WIND       PRES   REMARKS
ALAMOSA        SUNNY     69  23  17 VRB5      30.32F
LA VETA PASS   SUNNY     64  19  17 S9        30.48F
SAGUACHE       SUNNY     66  27  22 SE9       30.35F
$$

COZ035-036-038>040-252100-
...NORTHERN COLORADO FRONT RANGE...

CITY           SKY/WX    TMP DP  RH WIND       PRES   REMARKS
DENVER INTL AP MOSUNNY   79  18  10 SE13      30.14F
DMNS CITY PARK   N/A     79  20  11 E7        30.12F
AURORA         SUNNY     78  18  10 SE9       30.16F
FRONT RANGE AP NOT AVBL
ERIE MUNI ARPT SUNNY     79  19  10 S10G17    30.12F
BOULDER MUN AP SUNNY     79  23  12 SE10      30.13F
CENTENNIAL     SUNNY     76  20  12 SE9       30.16F
BROOMFIELD     NOT AVBL
FORT COLLINS   SUNNY     79  27  14 SE14      30.12F
LONGMONT       SUNNY     81  20  10 S8        30.13F
$$

COZ041-046-047-076>085-087-088-252100-
...PIKES PEAK/PALMER DIVIDE AND SOUTHERN FOOTHILLS...

CITY           SKY/WX    TMP DP  RH WIND       PRES   REMARKS
COLO. SPRINGS  SUNNY     78  15   9 S9        30.21F
A. F. ACADEMY  SUNNY     75  14   9 VRB3      30.22F
ELLICOTT       NOT AVBL
FALCON         SUNNY     75  15  10 S6        30.26F
FORT CARSON    SUNNY     78  18  10 VRB5      30.18F HAZE
LIMON          SUNNY     79  18  10 CALM      30.15F
MONUMENT HILL  SUNNY     72  19  14 SE9       30.24F
TRINIDAD       SUNNY     80  25  13 E6        30.17F
$$

COZ042>045-048>051-090-091-252100-
...NORTHEAST COLORADO...

CITY           SKY/WX    TMP DP  RH WIND       PRES   REMARKS
GREELEY ARPT   SUNNY     79  27  14 S8        30.11F
AKRON          SUNNY     80  25  13 E7        30.10F
BURLINGTON     SUNNY     81  31  16 NE3       30.09F
WRAY           SUNNY     83  28  13 E5        30.06F
STERLING       SUNNY     81  36  19 SE5       30.06F
HOLYOKE        SUNNY     79  32  18 E5        30.07F
FORT MORGAN    SUNNY     79  26  14 SE6       30.11F
$$

COZ086-089-092>099-252100-
...SOUTHEAST COLORADO...

CITY           SKY/WX    TMP DP  RH WIND       PRES   REMARKS
PUEBLO         SUNNY     83  19   9 NE6       30.10F
LA JUNTA       SUNNY     83  31  15 N5        30.08F
LAMAR          SUNNY     84  36  18 CALM      30.04F
SPRINGFIELD      N/A     86  32  14 S10G18    30.08F
$$



USA.gov is the U.S. government's official web portal to all federal, state and local government web resources and services.